Dewpoint
59 59 59 59 60 60 60 59 58 59 59 58 59 60 61 62 62 56 53 56 58 63 61 51 48 46 47 47 47 44 36 37 40 39 38 40 37 40 42 45 48 51 49 55 60
59 59 59 59 59 60 60 60 59 59 58 58 59 59 61 62 57 54 58 62 63 62 54 49 46 45 41 44 47 41 35 35 41 40 39 40 40 40 37 39 41 44 52 58 60
58 59 59 59 59 59 60 60 60 59 59 58 59 59 60 60 47 45 61 62 63 60 56 53 50 45 40 43 44 43 33 37 39 40 42 41 40 41 39 38 39 41 44 53 57
57 58 58 58 59 59 59 60 60 59 59 59 59 59 59 56 28 52 62 63 63 58 55 52 48 42 38 35 44 38 41 39 41 44 43 41 42 40 40 39 41 42 43 48 50
57 57 58 58 58 58 59 59 59 60 59 59 59 58 56 48 42 52 61 62 60 57 53 51 46 42 34 38 43 40 42 44 44 43 43 43 42 41 41 42 43 42 44 45 46
56 56 57 57 58 57 58 59 59 59 59 59 59 58 51 39 49 54 60 59 57 54 54 52 46 44 40 39 37 41 42 42 43 42 42 41 40 41 40 42 42 43 43 42 41
55 56 56 57 58 58 58 58 58 59 59 59 58 53 47 38 48 50 55 58 58 55 54 53 50 45 45 43 45 44 40 42 42 41 39 41 36 38 37 41 40 39 40 41 41
53 54 55 56 57 58 58 58 58 57 58 58 58 50 39 46 47 47 47 57 57 56 54 55 52 49 46 46 45 39 38 28 30 40 39 37 18 36 39 39 38 39 38 40 40
53 54 54 55 56 57 57 57 57 58 57 57 52 46 39 49 44 43 46 53 56 56 55 54 53 46 47 38 34 41 27 30 32 41 38 36 28 36 39 39 38 36 36 37 38
53 53 54 54 55 56 56 56 56 57 55 53 50 42 43 40 44 44 45 53 52 52 50 49 49 44 43 38 23 25 27 32 25 36 40 38 35 37 39 37 35 35 36 36 37
51 52 53 54 55 55 55 53 49 48 50 44 45 41 40 44 45 43 47 52 52 49 43 46 42 38 38 37 32 29 30 25 34 36 36 33 33 33 36 37 37 35 34 35 35
50 52 52 53 54 55 52 46 43 46 44 46 46 42 42 45 40 43 49 45 45 41 42 43 38 36 38 40 37 34 32 31 34 37 37 33 32 35 36 37 37 35 33 34 36
50 51 52 52 53 52 49 47 49 48 41 44 45 40 41 44 39 41 46 45 42 39 41 34 34 37 39 40 38 37 34 31 30 35 36 34 28 28 31 34 36 37 37 37 35
49 50 51 52 46 46 48 49 51 51 37 39 41 42 42 43 37 43 45 42 43 37 37 38 37 39 38 36 37 34 37 36 35 34 29 31 26 27 28 28 33 34 35 33 34
48 49 50 50 45 43 48 50 51 47 23 37 41 43 42 38 39 43 45 44 38 39 39 34 38 37 38 37 39 34 38 37 37 35 34 32 31 25 31 29 29 29 33 34 34
48 49 50 48 47 47 50 50 48 33 23 36 40 39 39 38 39 44 42 43 41 38 39 34 39 38 35 38 39 39 37 37 37 34 30 28 28 18 23 24 25 29 32 34 33
48 49 47 46 42 47 48 46 31 26 35 33 35 38 37 36 38 39 39 38 33 31 31 34 35 38 38 36 39 38 33 28 28 29 22 24 26 23 26 27 29 26 33 33 33
48 48 45 44 48 47 44 36 25 32 33 35 35 37 34 36 36 38 36 34 36 32 28 29 28 35 38 33 33 37 32 25 19 20 18 28 25 23 29 26 30 32 32 33 31
47 46 43 44 47 46 35 25 28 33 33 33 34 32 33 34 36 36 35 33 34 34 24 27 25 34 36 36 34 34 34 30 25 24 23 20 25 26 30 29 30 32 33 32 31
45 42 40 46 46 43 31 27 32 35 31 32 30 31 31 34 34 33 35 33 32 35 32 28 24 32 33 35 35 33 32 30 32 23 20 17 18 15 24 26 28 31 32 31 31
43 36 40 46 44 35 27 28 32 35 35 31 29 33 31 33 32 34 33 32 33 34 34 30 27 29 33 33 31 31 30 30 28 29 20 15 12 18 19 22 24 27 31 31 30
39 29 40 44 32 32 26 30 35 34 37 35 31 31 32 34 32 31 31 31 34 34 33 31 28 25 29 30 32 32 28 29 23 24 24 19 16 21 22 22 23 27 33 31 29
35 35 42 40 25 26 31 32 32 31 34 35 31 30 30 32 31 32 31 33 33 33 32 32 30 28 27 26 27 31 32 30 28 25 25 23 18 21 22 23 25 29 33 29 25
36 28 33 36 33 27 26 28 29 32 33 34 36 31 30 30 29 31 30 32 35 34 38 34 30 28 21 18 25 27 30 31 30 29 26 23 20 20 22 24 27 31 31 26 22
34 29 32 27 28 29 26 24 24 28 30 32 35 33 30 30 29 29 31 31 33 36 36 34 32 29 28 25 22 22 25 31 30 29 25 23 23 24 24 24 28 30 29 25 21
31 30 33 29 31 28 28 24 24 26 32 30 32 33 30 31 30 29 30 30 30 33 34 36 31 30 28 28 27 24 22 26 31 30 28 27 25 24 24 25 26 30 28 24 21
36 36 34 30 30 28 27 25 22 22 29 33 35 32 31 31 33 32 32 32 32 32 33 34 32 31 26 27 27 26 28 25 24 28 27 26 26 27 27 25 26 28 27 25 21
Lifted_Index
2 2 2 2 2 3 3 4 4 5 5 5 5 4 4 3 3 3 3 2 2 2 3 3 3 4 4 4 4 4 4 3 3 3 3 3 3 4 4 4 3 3 3 2 2
2 2 2 2 2 2 2 3 4 4 5 5 5 4 4 3 3 4 3 3 2 2 2 3 3 4 4 4 4 4 4 4 4 3 3 3 3 4 4 4 4 4 3 2 2
2 2 2 2 2 2 2 2 3 4 4 5 5 5 4 4 5 5 4 3 3 3 3 3 3 4 5 5 5 5 5 5 5 4 4 4 4 4 4 4 4 5 4 3 2
1 1 2 2 2 1 1 2 2 3 4 4 4 5 4 5 6 5 4 3 3 3 3 3 4 5 6 6 5 5 5 5 5 5 5 4 4 4 4 5 5 5 5 4 4
2 1 1 2 2 2 2 2 2 2 3 3 4 4 5 6 7 5 3 2 3 3 3 3 4 5 6 7 6 6 5 5 5 5 5 5 5 5 5 5 5 6 6 5 5
2 2 2 2 2 2 2 2 2 2 2 3 4 4 6 7 7 5 3 3 3 3 3 4 4 5 6 7 6 6 6 6 6 5 5 5 5 6 5 5 6 6 6 6 6
2 2 2 2 1 1 2 2 2 2 2 3 4 5 6 7 7 6 4 3 3 3 3 4 5 5 6 6 6 6 6 6 6 6 6 6 6 6 6 6 6 7 7 7 7
2 2 2 2 2 1 1 1 2 2 2 3 4 6 7 8 8 6 5 3 2 3 3 4 4 5 6 6 7 7 6 7 7 6 6 6 6 6 7 7 7 7 7 8 8
3 3 2 2 2 1 1 1 1 2 3 3 5 6 7 7 8 7 5 3 3 3 3 4 4 5 6 7 6 6 6 6 6 7 7 6 6 6 7 7 7 7 8 8 8
3 3 2 2 1 1 1 1 2 2 3 4 5 6 6 7 7 7 6 4 3 3 4 4 5 6 7 7 6 6 6 5 6 7 7 7 6 7 7 8 8 8 8 8 8
3 3 3 2 1 0 1 2 2 2 3 4 5 5 6 6 7 7 6 4 4 4 4 5 5 6 6 7 7 7 6 6 7 7 7 7 7 7 8 8 8 8 8 8 8
4 3 3 2 1 1 1 1 2 2 2 3 4 4 5 6 6 6 5 4 4 5 5 5 6 6 6 6 7 7 6 6 7 7 7 7 7 7 8 8 8 8 8 8 8
4 3 3 2 2 1 1 1 1 1 1 2 2 3 4 5 5 5 5 4 5 5 5 6 6 6 6 6 6 6 6 6 6 6 6 6 6 7 8 8 8 8 8 9 9
4 4 3 3 3 2 2 1 1 1 1 1 2 2 3 4 4 5 4 4 4 5 5 6 6 6 6 6 5 5 6 5 5 5 6 6 5 6 7 7 7 8 8 9 9
4 4 4 4 4 3 2 1 1 0 0 1 2 2 3 3 4 4 4 4 4 4 5 6 6 6 5 5 5 5 5 5 5 5 5 5 5 6 7 7 7 7 8 8 9
2 3 4 4 4 4 2 1 0 -0 -0 1 2 3 3 4 3 3 3 4 4 4 5 6 6 6 6 5 5 5 5 5 4 4 4 5 5 5 7 7 7 7 8 8 8
1 2 3 5 5 4 3 1 0 -0 0 1 2 3 3 3 3 3 3 3 4 4 5 5 6 6 6 5 5 5 4 3 3 2 3 5 5 5 7 8 8 8 8 8 8
0 1 3 4 5 4 3 1 0 0 1 2 2 3 3 3 3 3 3 3 4 4 4 4 4 5 5 5 4 4 3 3 2 2 3 5 5 6 8 8 7 7 8 8 8
0 1 2 3 4 4 3 2 1 1 1 2 2 2 2 2 2 2 3 3 3 3 3 3 3 4 4 4 3 3 3 3 2 2 3 4 6 7 8 7 7 7 7 7 7
1 1 2 2 3 4 4 3 2 1 1 1 1 1 2 2 2 2 3 3 3 3 3 3 3 3 4 3 3 3 3 3 2 2 2 3 5 6 7 7 7 7 7 7 7
2 2 2 2 3 4 5 4 3 2 1 1 1 1 1 1 2 2 2 3 3 3 3 3 3 3 3 3 3 2 2 2 2 2 2 2 4 6 7 7 7 7 7 7 7
3 3 3 3 4 5 5 4 3 2 1 1 1 0 0 1 1 1 1 2 2 2 2 2 2 2 3 3 2 2 2 1 1 2 2 2 4 7 7 7 7 6 6 6 6
4 3 3 3 4 5 5 4 4 3 2 1 0 0 0 0 1 1 1 1 1 1 1 1 1 2 2 3 3 2 2 1 1 1 2 3 4 6 7 6 6 6 5 5 5
4 4 3 3 4 4 4 4 4 4 3 2 1 0 0 0 0 0 0 1 1 0 0 0 0 1 1 2 2 2 2 1 1 1 2 3 4 5 6 6 5 5 5 5 5
4 4 3 3 4 4 4 4 4 4 3 2 1 0 0 -0 -0 -0 -0 0 0 0 -0 -0 -0 0 1 1 1 2 2 1 1 1 2 3 4 5 5 5 5 4 4 4 4
4 4 3 3 3 4 4 4 5 4 3 2 1 0 0 -0 -0 -0 -0 -0 -0 -0 -1 -1 -0 0 1 1 1 1 2 2 2 2 2 2 3 4 4 4 4 4 3 3 3
4 4 3 3 3 3 4 5 5 5 4 3 1 1 0 0 -0 -0 -0 -0 -0 -1 -1 -1 -1 -0 0 1 1 1 2 3 2 2 2 2 3 3 3 4 4 3 3 2 2